GW6438 Weather Reports


time (UTC)temp
F
wind
direction
speed
knots
gust
knots
rain 1hr
in
rain 24hr
in
rain mn
in
humidity
%
barometer
mb
20260506134556 50 132 0.0 0.0 0.00 0.00 0.00 94 1014.0
20260506133054 49 133 0.0 0.0 0.00 0.00 0.00 94 1014.1
20260506131555 49 37 0.0 0.0 0.00 0.00 0.00 94 1014.1
20260506130059 49 35 0.0 0.0 0.00 0.00 0.00 94 1013.9
20260506124550 49 36 0.0 0.0 0.00 0.00 0.00 94 1013.5
20260506123049 49 35 0.0 0.0 0.00 0.00 0.00 94 1013.5
20260506121552 50 36 0.0 0.0 0.00 0.00 0.00 94 1013.4
20260506120047 50 36 0.0 0.0 0.00 0.00 0.00 94 1013.6
20260506114547 50 11 0.0 1.7 0.00 0.00 0.00 94 1013.4
20260506113044 50 40 0.9 3.5 0.00 0.00 0.00 94 1013.3
20260506111542 50 55 1.7 3.5 0.00 0.00 0.00 94 1013.1
20260506110040 50 36 0.9 5.2 0.00 0.00 0.00 94 1012.8
20260506104541 50 30 0.0 2.6 0.00 0.00 0.00 94 1012.6
20260506103047 50 42 1.7 4.3 0.00 0.00 0.00 94 1012.7
20260506101538 50 86 0.0 0.0 0.00 0.00 0.00 94 1012.5
20260506100035 50 93 0.0 0.0 0.00 0.00 0.00 93 1012.3
20260506094534 50 94 0.0 0.0 0.00 0.00 0.00 93 1012.2
20260506093031 50 94 0.0 0.0 0.00 0.00 0.00 92 1012.1
20260506091531 51 93 0.0 0.0 0.00 0.00 0.00 92 1012.0
20260506090041 51 94 0.0 0.0 0.00 0.00 0.00 92 1011.9
20260506084525 51 9 0.0 0.0 0.00 0.00 0.00 92 1011.8
20260506083024 51 9 0.0 0.0 0.00 0.00 0.00 92 1011.7
20260506081522 51 9 0.0 0.0 0.00 0.00 0.00 92 1011.7
20260506073018 51 9 0.0 0.0 0.00 0.00 0.00 91 1011.5
20260506071514 52 9 0.0 4.3 0.00 0.00 0.00 91 1011.4
20260506061508 52 25 0.9 4.3 0.00 0.00 0.00 91 1010.8
20260506044508 54 39 1.7 5.2 0.00 0.00 0.00 88 1010.5
20260506043007 54 22 0.9 3.5 0.00 0.00 0.00 88 1010.4
20260506041505 54 30 0.0 0.0 0.00 0.00 0.00 87 1010.2
20260506040005 55 28 0.0 0.0 0.00 0.00 0.00 86 1010.0
20260506034504 55 28 0.0 0.9 0.00 0.00 0.00 84 1009.8
20260506033005 56 28 0.0 3.5 0.00 0.00 0.00 84 1009.7
20260506031504 56 5 2.6 4.3 0.00 0.00 0.00 82 1009.6
20260506030004 58 121 0.0 0.9 0.00 0.00 0.00 79 1009.4
20260506024507 57 260 0.0 0.0 0.00 0.00 0.00 83 1009.4
20260506023004 57 263 0.0 2.6 0.00 0.00 0.00 81 1009.5
20260506021502 59 350 0.0 2.6 0.00 0.00 0.00 77 1009.6
20260506020003 58 36 2.6 5.2 0.00 0.00 0.00 80 1009.6
20260506014601 58 13 3.5 7.8 0.00 0.00 0.00 80 1009.7
20260506013107 57 34 3.5 7.8 0.00 0.00 0.00 81 1009.7
20260506011607 57 357 3.5 7.8 0.00 0.00 0.00 81 1009.8
20260506010059 58 18 5.2 7.8 0.00 0.00 0.00 80 1009.9
20260506004558 58 360 5.2 7.8 0.00 0.00 0.00 79 1010.0
20260506003056 60 16 5.2 7.8 0.00 0.00 0.00 75 1010.1
20260506001554 60 17 3.5 6.1 0.00 0.00 0.00 77 1010.1
20260506000049 59 251 0.9 5.2 0.00 0.00 0.00 77 1010.2
20260505234545 60 22 3.5 4.3 0.00 0.00 0.00 77 1010.4
20260505233040 59 269 2.6 4.3 0.00 0.00 0.00 78 1010.7
20260505231542 60 1 2.6 4.3 0.00 0.00 0.00 76 1010.7
20260505230036 59 331 0.9 4.3 0.00 0.00 0.00 80 1010.9
20260505224529 58 214 4.3 7.8 0.00 0.00 0.00 80 1011.1
20260505223030 58 197 4.3 7.8 0.00 0.00 0.00 80 1011.3
20260505221525 58 219 5.2 9.6 0.00 0.00 0.00 81 1011.4
20260505220021 57 197 5.2 9.6 0.00 0.00 0.00 81 1011.5
20260505214529 57 183 6.1 10.4 0.00 0.00 0.00 81 1011.6
20260505213019 57 207 5.2 10.4 0.00 0.00 0.00 81 1011.7
20260505211518 57 218 4.3 7.8 0.00 0.00 0.00 81 1011.8
20260505210017 57 217 4.3 8.7 0.00 0.00 0.00 82 1011.8
20260505204517 57 215 3.5 9.6 0.00 0.00 0.00 82 1011.9
20260505203015 57 251 2.6 7.0 0.00 0.00 0.00 81 1012.0
20260505201515 57 259 3.5 9.6 0.00 0.00 0.00 82 1012.0
20260505200015 57 218 4.3 7.8 0.00 0.00 0.00 81 1011.9
20260505194514 57 222 4.3 10.4 0.00 0.00 0.00 81 1011.9
20260505193012 57 192 4.3 9.6 0.00 0.00 0.00 81 1012.0
20260505191514 56 213 3.5 7.8 0.00 0.00 0.00 82 1012.0
20260505190017 56 237 3.5 7.8 0.00 0.00 0.00 82 1011.9
20260505184512 56 229 4.3 8.7 0.00 0.00 0.00 83 1012.0
20260505183009 56 192 5.2 7.8 0.00 0.00 0.00 83 1011.9
20260505181507 56 195 3.5 8.7 0.00 0.00 0.00 83 1011.9
20260505180011 56 226 2.6 8.7 0.00 0.00 0.00 83 1011.8
20260505174508 56 214 3.5 7.8 0.00 0.00 0.00 83 1011.7
20260505173004 56 227 5.2 9.6 0.00 0.00 0.00 83 1011.7
20260505171506 55 224 2.6 7.8 0.00 0.00 0.00 84 1011.6
20260505170007 55 321 0.0 4.3 0.00 0.00 0.00 87 1011.6
20260505164502 54 241 0.9 2.6 0.00 0.00 0.00 87 1011.4
20260505163101 54 240 0.0 0.0 0.00 0.00 0.00 87 1011.3
20260505161606 54 240 0.0 1.7 0.00 0.00 0.00 88 1011.3
20260505153102 52 17 1.7 5.2 0.00 0.00 0.00 91 1011.1
20260505151604 52 15 3.5 6.1 0.00 0.00 0.00 92 1010.9
20260505140107 51 21 0.9 2.6 0.00 0.00 0.00 92 1009.9